Preview of NWS' New Version of Forecast
This preview is not operational and should not be used for support decisions.

Regional Weather Roundup (RWR)

Issued by Gray - Portland, ME (GYX)

                            
000
ASUS41 KGYX 240505
RWRGYX
WEATHER ROUNDUP FOR MAINE AND NEW HAMPSHIRE
NATIONAL WEATHER SERVICE GRAY ME
1200 AM EST THU JAN 24 2019

MEZ002-005-006-010-012-015-018-020-021-024-026-027-029-240600-
MAINE
  
CITY           SKY/WX    TMP DP  RH WIND       PRES   REMARKS
PORTLAND       CLOUDY    41  31  67 S12       29.90S                  
SANFORD        LGT RAIN  39  32  76 SW8       29.89F                  
BAR HARBOR     CLOUDY    40  36  86 SW16      29.89F                  
WISCASSET      CLOUDY    40  33  76 SW8       29.91F                  
ROCKLAND       CLOUDY    41  36  82 SW14G20   29.90S                  
FRYEBURG       LGT RAIN  33  32  96 SE5       29.84F                  
LEWISTONAUBURN MIX PCPN  31  25  78 CALM      29.87F                  
AUGUSTA        CLOUDY    34  28  79 VRB6      29.86F                  
WATERVILLE     CLOUDY    28  23  81 MISG      29.83F                  
BANGOR         CLOUDY    24  21  88 CALM      29.87F                  
GREENVILLE       N/A     19  11  70 SE9       29.75F                  
MILLINOCKET    CLOUDY    20  16  84 CALM      29.85F                  
HOULTON        CLOUDY    23  21  92 VRB7      29.81F                  
PRESQUE ISLE   FLURRIES  19  16  88 CALM      29.83F                  
FRENCHVILLE    LGT SNOW  16  11  80 SE7       29.78S                  
CARIBOU        LGT SNOW  18  14  84 CALM      29.80S FOG              
$$

NHZ002-005-008-009-011-012-014-240600-
NEW HAMPSHIRE
  
CITY           SKY/WX    TMP DP  RH WIND       PRES   REMARKS
ROCHESTER      LGT RAIN  38  32  79 CALM      29.89F                  
NASHUA         CLOUDY    35  33  92 CALM      29.91                   
MANCHESTER     CLOUDY    41  34  76 S7        29.88F                  
CONCORD        CLOUDY    38  30  73 S10       29.88F                  
LACONIA        MIX PCPN  31  28  89 CALM      29.86F                  
PLYMOUTH       MIX PCPN  29  28  96 CALM      29.88F                  
BERLIN         FRZ RAIN  27  25  92 CALM      29.79F                  
WHITEFIELD     FRZ RAIN  30  27  88 CALM      29.79F                  
JAFFREY        LGT RAIN  40  39  97 S12G21    29.88F FOG              
KEENE          LGT RAIN  34  33  96 N5        29.90F                  
LEBANON        LGT RAIN  38  32  79 SW6       29.82F                  
MT WASHINGTON  FRZ RAIN  30  30 100 W63G77      N/A  VSB 0   WCI  10  
$$

VTZ005-007-008-240600-
VERMONT
  
CITY           SKY/WX    TMP DP  RH WIND       PRES   REMARKS
ST JOHNSBURY     N/A     34  34 100 MISG      29.79S                  
MONTPELIER     LGT RAIN  35  34  96 SE8       29.79F                  
BURLINGTON     CLOUDY    40  35  83 S23G37    29.72F                  
$$

MAZ007-012-024-CTZ003-RIZ002-NYZ038-NYZ072-240600-
SOUTHERN NEW ENGLAND AND NY
  
CITY           SKY/WX    TMP DP  RH WIND       PRES   REMARKS
BOSTON         CLOUDY    47  43  86 SW15      29.94S                  
WORCESTER      CLOUDY    46  44  93 SW26G36   29.89F                  
NANTUCKET      CLOUDY    44  42  93 S16       30.05F                  
PROVIDENCE     CLOUDY    50  47  89 SW17G25   29.98S                  
HARTFORD       CLOUDY    41  40  96 S7        29.93F                  
ALBANY         LGT RAIN  40  33  76 S14       29.84F                  
NEW YORK CITY  CLOUDY    46  42  86 S6        29.93F                  
$$

ANZ081-ANZ082-ANZ150-NHZ014-MEZ023>029-240600-
COASTAL MARINE OBSERVATIONS
  
STATION/POSITION TIME  TEMP    WIND        PRES    WAVE
                       AIR SEA DIR/SP/G            HT/PER
                 (UTC) (F)     (DEG/KT/KT) (MB)    (FT/S)
MOUNT DESERT ROC 0500   42     200/ 24/ 25 1012.7F
MATINICUS ROCK   0400   42     230/ 25/ 29 1012.8F
ISLE OF SHOALS   0400   43     220/ 18/ 20 1012.9F
JEFFREYS LEDGE   0408      42                N/A     5/ 6
CASHES LEDGE BUO 0450   45 40              1012.8F   7/ 7
$$

.............KEY..............
   WCI - WIND CHILL
   TC  - TEMPERATURE IN CELSIUS
   VSB - VISIBILITY IN MILES
   HX  - HEAT INDEX
   FAIR- INDICATES FEW OR NO CLOUDS BELOW 12,000 FT, WITH NO 
         SIGNIFICANT WEATHER AND/OR OBSTRUCTIONS TO VISIBILITY.